User: anonymous   Login
Location: Bonn
(50.7330°N, 7.1000°E)
Time: 02:38:14
(UTC+02:00)
Language:

Cosmos 1933 Rocket - Orbit

View from above orbital plane
View from above orbital plane
View from above satellite
View from above satellite

Ground track
Ground track

The orbit data is extracted from the following two-line orbital elements,

1 18959U 88020B   17205.59889593 +.00000057 +00000-0 +39768-5 0  9991
2 18959 082.5360 235.8563 0017334 019.1006 341.0855 14.83343155565048
Epoch (UTC): 24 July 2017 14:22:24
Eccentricity: 0.0017334
inclination: 82.5360°
perigee height: 606 km
apogee height: 631 km
right ascension of ascending node: 235.8563°
argument of perigee: 19.1006°
revolutions per day: 14.83343155
mean anomaly at epoch: 341.0855°
orbit number at epoch: 56504

The dashed part of the orbit path shows where the satellite is in the earth's shadow,  

DLR